Time,TemperatureF,DewpointF,PressureIn,WindDirection,WindDirectionDegrees,WindSpeedMPH,WindSpeedGustMPH,Humidity,HourlyPrecipIn,Conditions,Clouds,dailyrainin,SoftwareType,DateUTC
2013-09-12 00:01:00,81.4,76.1,29.92,South,176,0.0,0.0,84,0.00,,---,0.01,VWS V14.01,2013-09-12 04:01:00,
2013-09-12 00:02:00,81.4,76.1,29.92,South,176,0.0,0.0,84,0.00,,---,0.01,VWS V14.01,2013-09-12 04:02:00,
2013-09-12 00:07:00,81.4,76.1,29.92,South,176,0.0,0.0,84,0.00,,---,0.00,VWS V14.01,2013-09-12 04:07:00,
2013-09-12 00:12:00,81.3,76.0,29.92,South,177,0.0,0.0,84,0.00,,---,0.00,VWS V14.01,2013-09-12 04:12:00,
2013-09-12 00:17:00,81.2,75.9,29.91,South,176,0.0,1.0,84,0.00,,---,0.00,VWS V14.01,2013-09-12 04:17:00,
2013-09-12 00:22:00,81.3,76.0,29.91,South,176,0.0,0.0,84,0.00,,---,0.00,VWS V14.01,2013-09-12 04:22:00,
2013-09-12 00:27:00,81.2,75.9,29.91,South,176,0.0,0.0,84,0.00,,---,0.00,VWS V14.01,2013-09-12 04:27:00,
2013-09-12 00:32:00,81.2,75.9,29.91,South,176,0.0,0.0,84,0.00,,---,0.00,VWS V14.01,2013-09-12 04:32:00,
2013-09-12 00:37:00,81.1,75.8,29.91,South,176,0.0,0.0,84,0.00,,---,0.00,VWS V14.01,2013-09-12 04:37:00,
2013-09-12 00:42:00,81.0,75.7,29.91,South,176,0.0,0.0,84,0.00,,---,0.00,VWS V14.01,2013-09-12 04:42:00,
2013-09-12 00:47:00,81.0,75.7,29.91,South,176,0.0,0.0,84,0.00,,---,0.00,VWS V14.01,2013-09-12 04:47:00,
2013-09-12 00:52:00,81.0,75.7,29.91,South,176,0.0,0.0,84,0.00,,---,0.00,VWS V14.01,2013-09-12 04:52:00,
2013-09-12 00:57:00,81.0,75.7,29.91,South,176,0.0,0.0,84,0.00,,---,0.00,VWS V14.01,2013-09-12 04:57:00,
2013-09-12 01:02:00,81.1,75.8,29.91,South,176,0.0,0.0,84,0.00,,---,0.00,VWS V14.01,2013-09-12 05:02:00,
2013-09-12 01:07:00,81.2,75.9,29.91,South,176,0.0,0.0,84,0.00,,---,0.00,VWS V14.01,2013-09-12 05:07:00,
2013-09-12 01:12:00,81.2,75.9,29.91,South,176,0.0,0.0,84,0.00,,---,0.00,VWS V14.01,2013-09-12 05:12:00,
2013-09-12 01:17:00,81.0,75.7,29.90,South,177,0.0,0.0,84,0.00,,---,0.00,VWS V14.01,2013-09-12 05:17:00,
2013-09-12 01:22:00,80.9,75.3,29.90,South,176,0.0,0.0,83,0.00,,---,0.00,VWS V14.01,2013-09-12 05:22:00,
2013-09-12 01:27:00,80.9,75.3,29.90,South,176,0.0,0.0,83,0.00,,---,0.00,VWS V14.01,2013-09-12 05:27:00,
2013-09-12 01:32:00,80.9,75.3,29.90,South,176,0.0,0.0,83,0.00,,---,0.00,VWS V14.01,2013-09-12 05:32:00,
2013-09-12 01:37:00,80.9,75.3,29.90,South,176,6.0,6.0,83,0.00,,---,0.00,VWS V14.01,2013-09-12 05:37:00,
2013-09-12 01:42:00,80.9,75.3,29.90,South,176,0.0,2.0,83,0.00,,---,0.00,VWS V14.01,2013-09-12 05:42:00,
2013-09-12 01:47:00,81.0,75.3,29.88,South,176,0.0,0.0,83,0.00,,---,0.00,VWS V14.01,2013-09-12 05:47:00,
2013-09-12 01:52:00,81.1,75.4,29.88,South,176,0.0,0.0,83,0.00,,---,0.00,VWS V14.01,2013-09-12 05:52:00,
2013-09-12 01:57:00,81.1,75.4,29.88,South,176,0.0,0.0,83,0.00,,---,0.00,VWS V14.01,2013-09-12 05:57:00,
2013-09-12 02:02:00,81.1,75.4,29.88,South,176,0.0,0.0,83,0.00,,---,0.00,VWS V14.01,2013-09-12 06:02:00,
2013-09-12 02:07:00,81.0,75.3,29.88,South,176,0.0,0.0,83,0.00,,---,0.00,VWS V14.01,2013-09-12 06:07:00,
2013-09-12 02:12:00,81.0,75.3,29.88,South,176,0.0,0.0,83,0.00,,---,0.00,VWS V14.01,2013-09-12 06:12:00,
2013-09-12 02:17:00,81.0,75.3,29.88,South,176,0.0,0.0,83,0.00,,---,0.00,VWS V14.01,2013-09-12 06:17:00,
2013-09-12 02:22:00,81.0,75.3,29.88,South,176,0.0,0.0,83,0.00,,---,0.00,VWS V14.01,2013-09-12 06:22:00,
2013-09-12 02:27:00,80.9,75.3,29.88,South,176,0.0,0.0,83,0.00,,---,0.00,VWS V14.01,2013-09-12 06:27:00,
2013-09-12 02:32:00,80.9,75.3,29.88,South,176,0.0,0.0,83,0.00,,---,0.00,VWS V14.01,2013-09-12 06:32:00,
2013-09-12 02:37:00,80.9,75.3,29.88,South,176,0.0,0.0,83,0.00,,---,0.00,VWS V14.01,2013-09-12 06:37:00,
2013-09-12 02:42:00,80.9,75.3,29.88,South,176,0.0,0.0,83,0.00,,---,0.00,VWS V14.01,2013-09-12 06:42:00,
2013-09-12 02:47:00,80.9,75.6,29.88,South,176,0.0,0.0,84,0.00,,---,0.00,VWS V14.01,2013-09-12 06:47:00,
2013-09-12 02:52:00,80.8,75.2,29.88,South,176,0.0,0.0,83,0.00,,---,0.00,VWS V14.01,2013-09-12 06:52:00,
2013-09-12 02:57:00,80.9,75.6,29.88,South,176,0.0,0.0,84,0.00,,---,0.00,VWS V14.01,2013-09-12 06:57:00,
2013-09-12 03:02:00,80.8,75.2,29.88,South,176,0.0,0.0,83,0.00,,---,0.00,VWS V14.01,2013-09-12 07:02:00,
2013-09-12 03:07:00,80.8,75.5,29.88,South,176,0.0,0.0,84,0.00,,---,0.00,VWS V14.01,2013-09-12 07:07:00,
2013-09-12 03:12:00,80.9,75.6,29.88,South,176,0.0,0.0,84,0.00,,---,0.00,VWS V14.01,2013-09-12 07:12:00,
2013-09-12 03:17:00,80.9,75.6,29.88,South,176,0.0,1.0,84,0.00,,---,0.00,VWS V14.01,2013-09-12 07:17:00,
2013-09-12 03:22:00,80.9,75.6,29.88,South,177,0.0,0.0,84,0.00,,---,0.00,VWS V14.01,2013-09-12 07:22:00,
2013-09-12 03:27:00,80.9,75.6,29.88,South,176,0.0,0.0,84,0.00,,---,0.00,VWS V14.01,2013-09-12 07:27:00,
2013-09-12 03:32:00,80.9,75.6,29.87,South,176,0.0,0.0,84,0.00,,---,0.00,VWS V14.01,2013-09-12 07:32:00,
2013-09-12 03:37:00,80.8,75.5,29.87,South,176,0.0,0.0,84,0.00,,---,0.00,VWS V14.01,2013-09-12 07:37:00,
2013-09-12 03:42:00,80.8,75.5,29.87,South,176,0.0,0.0,84,0.00,,---,0.00,VWS V14.01,2013-09-12 07:42:00,
2013-09-12 03:47:00,80.8,75.5,29.87,South,176,0.0,0.0,84,0.00,,---,0.00,VWS V14.01,2013-09-12 07:47:00,
2013-09-12 03:52:00,80.7,75.1,29.87,South,176,0.0,0.0,83,0.00,,---,0.00,VWS V14.01,2013-09-12 07:52:00,
2013-09-12 03:57:00,80.7,75.1,29.87,South,176,0.0,0.0,83,0.00,,---,0.00,VWS V14.01,2013-09-12 07:57:00,
2013-09-12 04:02:00,80.8,75.5,29.87,South,176,0.0,0.0,84,0.00,,---,0.00,VWS V14.01,2013-09-12 08:02:00,
2013-09-12 04:07:00,80.8,75.5,29.87,South,176,0.0,0.0,84,0.00,,---,0.00,VWS V14.01,2013-09-12 08:07:00,
2013-09-12 04:12:00,80.7,75.1,29.87,South,176,0.0,0.0,83,0.00,,---,0.00,VWS V14.01,2013-09-12 08:12:00,
2013-09-12 04:17:00,80.7,75.1,29.87,South,176,0.0,0.0,83,0.00,,---,0.00,VWS V14.01,2013-09-12 08:17:00,
2013-09-12 04:22:00,80.6,75.0,29.87,South,176,0.0,0.0,83,0.00,,---,0.00,VWS V14.01,2013-09-12 08:22:00,
2013-09-12 04:27:00,80.5,74.9,29.87,South,176,0.0,0.0,83,0.00,,---,0.00,VWS V14.01,2013-09-12 08:27:00,
2013-09-12 04:32:00,80.5,74.9,29.86,South,176,0.0,0.0,83,0.00,,---,0.00,VWS V14.01,2013-09-12 08:32:00,
2013-09-12 04:37:00,80.5,75.2,29.86,South,176,0.0,0.0,84,0.00,,---,0.00,VWS V14.01,2013-09-12 08:37:00,
2013-09-12 04:42:00,80.5,75.2,29.86,South,176,0.0,0.0,84,0.00,,---,0.00,VWS V14.01,2013-09-12 08:42:00,
2013-09-12 04:47:00,80.5,75.2,29.86,South,176,0.0,0.0,84,0.00,,---,0.00,VWS V14.01,2013-09-12 08:47:00,
2013-09-12 04:52:00,80.5,75.2,29.86,South,176,0.0,0.0,84,0.00,,---,0.00,VWS V14.01,2013-09-12 08:52:00,
2013-09-12 04:57:00,80.5,75.6,29.86,South,176,0.0,0.0,85,0.00,,---,0.00,VWS V14.01,2013-09-12 08:57:00,
2013-09-12 05:02:00,80.5,75.6,29.87,South,176,0.0,0.0,85,0.00,,---,0.00,VWS V14.01,2013-09-12 09:02:00,
2013-09-12 05:07:00,80.5,75.6,29.87,South,176,0.0,0.0,85,0.00,,---,0.00,VWS V14.01,2013-09-12 09:07:00,
2013-09-12 05:12:00,80.5,75.6,29.87,South,176,0.0,0.0,85,0.00,,---,0.00,VWS V14.01,2013-09-12 09:12:00,
2013-09-12 05:17:00,80.5,75.6,29.87,South,176,0.0,0.0,85,0.00,,---,0.00,VWS V14.01,2013-09-12 09:17:00,
2013-09-12 05:22:00,80.6,75.7,29.87,South,176,0.0,0.0,85,0.00,,---,0.00,VWS V14.01,2013-09-12 09:22:00,
2013-09-12 05:27:00,80.7,75.8,29.87,South,176,0.0,0.0,85,0.00,,---,0.00,VWS V14.01,2013-09-12 09:27:00,
2013-09-12 05:32:00,80.7,75.8,29.87,South,176,0.0,0.0,85,0.00,,---,0.00,VWS V14.01,2013-09-12 09:32:00,
2013-09-12 05:37:00,80.6,75.7,29.87,South,176,0.0,0.0,85,0.00,,---,0.00,VWS V14.01,2013-09-12 09:37:00,
2013-09-12 05:42:00,80.7,75.8,29.87,South,176,0.0,0.0,85,0.00,,---,0.00,VWS V14.01,2013-09-12 09:42:00,
2013-09-12 05:47:00,80.8,76.2,29.87,South,176,0.0,0.0,86,0.00,,---,0.00,VWS V14.01,2013-09-12 09:47:00,
2013-09-12 05:52:00,80.8,76.2,29.87,South,176,0.0,0.0,86,0.00,,---,0.00,VWS V14.01,2013-09-12 09:52:00,
2013-09-12 05:57:00,80.7,76.1,29.87,South,176,0.0,0.0,86,0.00,,---,0.00,VWS V14.01,2013-09-12 09:57:00,
2013-09-12 06:02:00,80.6,76.0,29.88,South,176,0.0,0.0,86,0.00,,---,0.00,VWS V14.01,2013-09-12 10:02:00,
2013-09-12 06:07:00,80.6,76.0,29.88,South,176,0.0,0.0,86,0.00,,---,0.00,VWS V14.01,2013-09-12 10:07:00,
2013-09-12 06:12:00,80.6,76.0,29.88,South,176,0.0,0.0,86,0.00,,---,0.00,VWS V14.01,2013-09-12 10:12:00,
2013-09-12 06:17:00,80.6,76.0,29.87,South,177,0.0,0.0,86,0.00,,---,0.00,VWS V14.01,2013-09-12 10:17:00,
2013-09-12 06:22:00,80.6,76.0,29.87,South,176,0.0,0.0,86,0.00,,---,0.00,VWS V14.01,2013-09-12 10:22:00,
2013-09-12 06:27:00,80.6,76.0,29.87,South,176,0.0,0.0,86,0.00,,---,0.00,VWS V14.01,2013-09-12 10:27:00,
2013-09-12 06:32:00,80.6,76.0,29.88,South,176,0.0,0.0,86,0.00,,---,0.00,VWS V14.01,2013-09-12 10:32:00,
2013-09-12 06:37:00,80.7,76.1,29.88,South,176,0.0,0.0,86,0.00,,---,0.00,VWS V14.01,2013-09-12 10:37:00,
2013-09-12 06:42:00,80.5,75.9,29.88,South,176,0.0,0.0,86,0.00,,---,0.00,VWS V14.01,2013-09-12 10:42:00,
2013-09-12 06:47:00,80.3,75.7,29.88,South,176,0.0,0.0,86,0.00,,---,0.00,VWS V14.01,2013-09-12 10:47:00,
2013-09-12 06:52:00,80.2,76.0,29.88,South,176,0.0,0.0,87,0.00,,---,0.00,VWS V14.01,2013-09-12 10:52:00,
2013-09-12 06:57:00,80.0,75.8,29.88,South,176,5.0,5.0,87,0.00,,---,0.00,VWS V14.01,2013-09-12 10:57:00,
2013-09-12 07:02:00,79.8,75.6,29.88,South,176,0.0,0.0,87,0.00,,---,0.00,VWS V14.01,2013-09-12 11:02:00,
2013-09-12 07:07:00,79.7,75.8,29.88,South,176,0.0,0.0,88,0.00,,---,0.00,VWS V14.01,2013-09-12 11:07:00,
2013-09-12 07:12:00,79.6,75.7,29.88,South,176,0.0,0.0,88,0.00,,---,0.00,VWS V14.01,2013-09-12 11:12:00,
2013-09-12 07:17:00,79.4,75.5,29.88,South,176,0.0,0.0,88,0.00,,---,0.00,VWS V14.01,2013-09-12 11:17:00,
2013-09-12 07:22:00,79.3,75.4,29.88,South,176,0.0,0.0,88,0.00,,---,0.00,VWS V14.01,2013-09-12 11:22:00,
2013-09-12 07:27:00,79.3,75.8,29.88,South,176,0.0,0.0,89,0.00,,---,0.00,VWS V14.01,2013-09-12 11:27:00,
2013-09-12 07:32:00,78.8,74.6,29.89,South,176,0.0,0.0,87,0.00,,---,0.00,VWS V14.01,2013-09-12 11:32:00,
2013-09-12 07:37:00,78.8,74.9,29.89,South,176,0.0,0.0,88,0.00,,---,0.00,VWS V14.01,2013-09-12 11:37:00,
2013-09-12 07:42:00,78.9,75.1,29.89,South,176,0.0,0.0,88,0.00,,---,0.00,VWS V14.01,2013-09-12 11:42:00,
2013-09-12 07:47:00,78.9,75.1,29.89,South,176,1.0,1.0,88,0.00,,---,0.00,VWS V14.01,2013-09-12 11:47:00,
2013-09-12 07:52:00,78.9,75.1,29.89,South,176,0.0,0.0,88,0.00,,---,0.00,VWS V14.01,2013-09-12 11:52:00,
2013-09-12 07:57:00,79.0,75.2,29.89,South,176,0.0,0.0,88,0.00,,---,0.00,VWS V14.01,2013-09-12 11:57:00,
2013-09-12 08:02:00,79.0,75.2,29.90,South,176,0.0,0.0,88,0.00,,---,0.00,VWS V14.01,2013-09-12 12:02:00,
2013-09-12 08:07:00,79.0,75.2,29.90,South,176,0.0,0.0,88,0.00,,---,0.00,VWS V14.01,2013-09-12 12:07:00,
2013-09-12 08:12:00,79.0,75.2,29.90,South,176,0.0,0.0,88,0.00,,---,0.00,VWS V14.01,2013-09-12 12:12:00,
2013-09-12 08:17:00,79.1,75.2,29.90,South,176,0.0,0.0,88,0.00,,---,0.00,VWS V14.01,2013-09-12 12:17:00,
2013-09-12 08:22:00,79.2,75.3,29.90,South,176,0.0,0.0,88,0.00,,---,0.00,VWS V14.01,2013-09-12 12:22:00,
2013-09-12 08:27:00,79.3,75.4,29.90,South,176,0.0,0.0,88,0.00,,---,0.00,VWS V14.01,2013-09-12 12:27:00,
2013-09-12 08:32:00,79.4,75.5,29.90,South,176,0.0,0.0,88,0.00,,---,0.00,VWS V14.01,2013-09-12 12:32:00,
2013-09-12 08:37:00,79.5,75.3,29.90,South,176,0.0,0.0,87,0.00,,---,0.00,VWS V14.01,2013-09-12 12:37:00,
2013-09-12 08:42:00,79.7,75.5,29.90,South,176,0.0,0.0,87,0.00,,---,0.00,VWS V14.01,2013-09-12 12:42:00,
2013-09-12 08:47:00,79.8,75.6,29.90,South,176,0.0,0.0,87,0.00,,---,0.00,VWS V14.01,2013-09-12 12:47:00,
2013-09-12 08:52:00,79.9,75.7,29.90,South,176,0.0,0.0,87,0.00,,---,0.00,VWS V14.01,2013-09-12 12:52:00,
2013-09-12 08:57:00,79.9,75.3,29.90,South,176,0.0,0.0,86,0.00,,---,0.00,VWS V14.01,2013-09-12 12:57:00,
2013-09-12 09:02:00,80.1,75.5,29.90,South,176,0.0,0.0,86,0.00,,---,0.00,VWS V14.01,2013-09-12 13:02:00,
2013-09-12 09:07:00,80.5,76.3,29.90,South,176,0.0,0.0,87,0.00,,---,0.00,VWS V14.01,2013-09-12 13:07:00,
2013-09-12 09:12:00,80.6,76.0,29.90,South,176,0.0,0.0,86,0.00,,---,0.00,VWS V14.01,2013-09-12 13:12:00,
2013-09-12 09:17:00,80.7,76.1,29.90,South,176,0.0,0.0,86,0.00,,---,0.00,VWS V14.01,2013-09-12 13:17:00,
2013-09-12 09:22:00,80.7,76.1,29.90,South,176,0.0,0.0,86,0.00,,---,0.00,VWS V14.01,2013-09-12 13:22:00,
2013-09-12 09:27:00,80.8,76.2,29.90,South,176,0.0,0.0,86,0.00,,---,0.00,VWS V14.01,2013-09-12 13:27:00,
2013-09-12 09:32:00,80.6,75.3,29.90,South,176,0.0,0.0,84,0.00,,---,0.00,VWS V14.01,2013-09-12 13:32:00,
2013-09-12 09:37:00,80.6,75.0,29.90,South,176,0.0,0.0,83,0.00,,---,0.00,VWS V14.01,2013-09-12 13:37:00,
2013-09-12 09:42:00,80.8,75.2,29.90,South,176,14.0,18.0,83,0.00,,---,0.00,VWS V14.01,2013-09-12 13:42:00,
2013-09-12 09:47:00,79.0,72.7,29.90,South,176,9.0,10.0,81,0.00,,---,0.00,VWS V14.01,2013-09-12 13:47:00,
2013-09-12 09:52:00,77.6,72.4,29.90,South,176,7.0,9.0,84,0.00,,---,0.00,VWS V14.01,2013-09-12 13:52:00,
2013-09-12 09:57:00,76.8,72.6,29.90,South,177,9.0,9.0,87,0.00,,---,0.00,VWS V14.01,2013-09-12 13:57:00,
2013-09-12 10:02:00,76.4,72.6,29.91,South,176,7.0,8.0,88,0.00,,---,0.00,VWS V14.01,2013-09-12 14:02:00,
2013-09-12 10:07:00,75.9,71.8,29.91,South,176,0.0,7.0,87,0.00,,---,0.00,VWS V14.01,2013-09-12 14:07:00,
2013-09-12 10:12:00,75.8,71.3,29.91,South,176,1.0,1.0,86,0.00,,---,0.00,VWS V14.01,2013-09-12 14:12:00,
2013-09-12 10:17:00,75.8,71.3,29.91,South,177,1.0,1.0,86,0.00,,---,0.00,VWS V14.01,2013-09-12 14:17:00,
2013-09-12 10:22:00,76.2,71.7,29.91,South,176,0.0,0.0,86,0.00,,---,0.00,VWS V14.01,2013-09-12 14:22:00,
2013-09-12 10:27:00,76.5,72.0,29.91,South,176,0.0,5.0,86,0.00,,---,0.00,VWS V14.01,2013-09-12 14:27:00,
2013-09-12 10:32:00,76.6,72.1,29.91,South,176,0.0,0.0,86,0.00,,---,0.00,VWS V14.01,2013-09-12 14:32:00,
2013-09-12 10:37:00,76.9,72.4,29.91,South,176,0.0,0.0,86,0.00,,---,0.00,VWS V14.01,2013-09-12 14:37:00,
2013-09-12 10:42:00,77.3,72.4,29.91,South,176,0.0,0.0,85,0.00,,---,0.00,VWS V14.01,2013-09-12 14:42:00,
2013-09-12 10:47:00,77.8,72.9,29.91,South,176,0.0,0.0,85,0.00,,---,0.00,VWS V14.01,2013-09-12 14:47:00,
2013-09-12 10:52:00,78.3,73.1,29.91,South,176,0.0,0.0,84,0.00,,---,0.00,VWS V14.01,2013-09-12 14:52:00,
2013-09-12 10:57:00,78.8,73.2,29.91,South,176,0.0,0.0,83,0.00,,---,0.00,VWS V14.01,2013-09-12 14:57:00,
2013-09-12 11:02:00,79.4,73.1,29.91,South,176,0.0,1.0,81,0.00,,---,0.00,VWS V14.01,2013-09-12 15:02:00,
2013-09-12 11:07:00,80.4,73.3,29.91,South,176,0.0,0.0,79,0.00,,---,0.00,VWS V14.01,2013-09-12 15:07:00,
2013-09-12 11:12:00,81.4,73.9,29.91,South,176,0.0,0.0,78,0.00,,---,0.00,VWS V14.01,2013-09-12 15:12:00,
2013-09-12 11:17:00,81.8,73.5,29.90,South,176,0.0,0.0,76,0.00,,---,0.00,VWS V14.01,2013-09-12 15:17:00,
2013-09-12 11:22:00,81.9,72.8,29.90,South,176,0.0,0.0,74,0.00,,---,0.00,VWS V14.01,2013-09-12 15:22:00,
2013-09-12 11:27:00,82.2,73.5,29.90,South,176,0.0,0.0,75,0.00,,---,0.00,VWS V14.01,2013-09-12 15:27:00,
2013-09-12 11:32:00,82.9,74.2,29.91,South,176,0.0,0.0,75,0.00,,---,0.00,VWS V14.01,2013-09-12 15:32:00,
2013-09-12 11:37:00,83.6,74.0,29.91,South,176,0.0,0.0,73,0.00,,---,0.00,VWS V14.01,2013-09-12 15:37:00,
2013-09-12 11:42:00,84.1,74.5,29.91,South,176,0.0,0.0,73,0.00,,---,0.00,VWS V14.01,2013-09-12 15:42:00,
2013-09-12 11:47:00,84.4,74.0,29.90,South,176,0.0,0.0,71,0.00,,---,0.00,VWS V14.01,2013-09-12 15:47:00,
2013-09-12 11:52:00,84.9,74.0,29.90,South,176,0.0,0.0,70,0.00,,---,0.00,VWS V14.01,2013-09-12 15:52:00,
2013-09-12 11:57:00,84.8,73.1,29.90,South,176,0.0,0.0,68,0.00,,---,0.00,VWS V14.01,2013-09-12 15:57:00,
2013-09-12 12:02:00,83.9,72.2,29.91,South,176,0.0,0.0,68,0.00,,---,0.00,VWS V14.01,2013-09-12 16:02:00,
2013-09-12 12:07:00,82.8,71.6,29.91,South,176,0.0,0.0,69,0.00,,---,0.00,VWS V14.01,2013-09-12 16:07:00,
2013-09-12 12:12:00,82.1,71.3,29.91,South,176,0.0,0.0,70,0.00,,---,0.00,VWS V14.01,2013-09-12 16:12:00,
2013-09-12 12:17:00,81.8,71.9,29.90,South,176,0.0,0.0,72,0.00,,---,0.00,VWS V14.01,2013-09-12 16:17:00,
2013-09-12 12:22:00,81.5,71.6,29.90,South,176,0.0,0.0,72,0.00,,---,0.00,VWS V14.01,2013-09-12 16:22:00,
2013-09-12 12:27:00,81.5,71.6,29.90,South,176,0.0,0.0,72,0.00,,---,0.00,VWS V14.01,2013-09-12 16:27:00,
2013-09-12 12:32:00,81.4,71.9,29.90,South,176,0.0,0.0,73,0.00,,---,0.00,VWS V14.01,2013-09-12 16:32:00,
2013-09-12 12:37:00,81.4,71.9,29.90,South,176,0.0,0.0,73,0.00,,---,0.00,VWS V14.01,2013-09-12 16:37:00,
2013-09-12 12:42:00,81.9,72.8,29.90,South,176,0.0,0.0,74,0.00,,---,0.00,VWS V14.01,2013-09-12 16:42:00,
2013-09-12 12:47:00,81.6,72.1,29.88,South,176,0.0,0.0,73,0.00,,---,0.00,VWS V14.01,2013-09-12 16:47:00,
2013-09-12 12:52:00,81.2,71.7,29.88,South,176,0.0,0.0,73,0.00,,---,0.00,VWS V14.01,2013-09-12 16:52:00,
2013-09-12 12:57:00,81.2,72.1,29.88,South,176,0.0,0.0,74,0.00,,---,0.00,VWS V14.01,2013-09-12 16:57:00,
2013-09-12 13:02:00,81.2,72.1,29.88,South,176,0.0,0.0,74,0.00,,---,0.00,VWS V14.01,2013-09-12 17:02:00,
2013-09-12 13:07:00,81.1,72.0,29.88,South,176,0.0,0.0,74,0.00,,---,0.00,VWS V14.01,2013-09-12 17:07:00,
2013-09-12 13:12:00,81.1,72.0,29.88,South,176,0.0,0.0,74,0.00,,---,0.00,VWS V14.01,2013-09-12 17:12:00,
2013-09-12 13:17:00,81.3,72.2,29.87,South,176,0.0,0.0,74,0.00,,---,0.00,VWS V14.01,2013-09-12 17:17:00,
2013-09-12 13:22:00,81.4,72.3,29.87,South,176,0.0,0.0,74,0.00,,---,0.00,VWS V14.01,2013-09-12 17:22:00,
2013-09-12 13:27:00,81.6,72.5,29.87,South,176,0.0,0.0,74,0.00,,---,0.00,VWS V14.01,2013-09-12 17:27:00,
2013-09-12 13:32:00,81.7,73.0,29.88,South,176,0.0,0.0,75,0.00,,---,0.00,VWS V14.01,2013-09-12 17:32:00,
2013-09-12 13:37:00,81.7,73.0,29.88,South,176,0.0,0.0,75,0.00,,---,0.00,VWS V14.01,2013-09-12 17:37:00,
2013-09-12 13:42:00,81.7,73.4,29.88,South,176,0.0,0.0,76,0.00,,---,0.00,VWS V14.01,2013-09-12 17:42:00,
2013-09-12 13:47:00,81.7,73.4,29.87,South,176,0.0,0.0,76,0.00,,---,0.00,VWS V14.01,2013-09-12 17:47:00,
2013-09-12 13:52:00,81.8,73.9,29.87,South,176,0.0,0.0,77,0.00,,---,0.00,VWS V14.01,2013-09-12 17:52:00,
2013-09-12 13:57:00,81.9,74.0,29.87,South,176,0.0,0.0,77,0.00,,---,0.00,VWS V14.01,2013-09-12 17:57:00,
2013-09-12 14:02:00,81.8,73.9,29.87,South,176,0.0,0.0,77,0.00,,---,0.00,VWS V14.01,2013-09-12 18:02:00,
2013-09-12 14:07:00,81.9,74.4,29.87,South,176,0.0,0.0,78,0.00,,---,0.00,VWS V14.01,2013-09-12 18:07:00,
2013-09-12 14:12:00,81.9,74.4,29.87,South,176,0.0,0.0,78,0.00,,---,0.00,VWS V14.01,2013-09-12 18:12:00,
2013-09-12 14:17:00,82.0,74.8,29.87,South,176,0.0,0.0,79,0.00,,---,0.00,VWS V14.01,2013-09-12 18:17:00,
2013-09-12 14:22:00,82.0,74.8,29.87,South,176,0.0,0.0,79,0.00,,---,0.00,VWS V14.01,2013-09-12 18:22:00,
2013-09-12 14:27:00,82.0,74.8,29.87,South,176,0.0,0.0,79,0.00,,---,0.00,VWS V14.01,2013-09-12 18:27:00,
2013-09-12 14:32:00,81.9,74.8,29.85,South,176,0.0,0.0,79,0.00,,---,0.00,VWS V14.01,2013-09-12 18:32:00,
2013-09-12 14:37:00,81.6,74.5,29.85,South,176,0.0,0.0,79,0.00,,---,0.00,VWS V14.01,2013-09-12 18:37:00,
2013-09-12 14:42:00,81.3,74.5,29.85,South,176,0.0,0.0,80,0.00,,---,0.00,VWS V14.01,2013-09-12 18:42:00,
2013-09-12 14:47:00,81.1,74.3,29.85,South,176,0.0,0.0,80,0.00,,---,0.00,VWS V14.01,2013-09-12 18:47:00,
2013-09-12 14:52:00,81.2,74.8,29.85,South,176,0.0,0.0,81,0.00,,---,0.00,VWS V14.01,2013-09-12 18:52:00,
2013-09-12 14:57:00,81.3,74.9,29.85,South,176,0.0,0.0,81,0.00,,---,0.00,VWS V14.01,2013-09-12 18:57:00,
2013-09-12 15:02:00,81.4,75.0,29.85,South,176,0.0,0.0,81,0.00,,---,0.00,VWS V14.01,2013-09-12 19:02:00,
2013-09-12 15:07:00,81.4,74.6,29.85,South,176,0.0,0.0,80,0.00,,---,0.00,VWS V14.01,2013-09-12 19:07:00,
2013-09-12 15:12:00,81.5,74.7,29.85,South,176,0.0,0.0,80,0.00,,---,0.00,VWS V14.01,2013-09-12 19:12:00,
2013-09-12 15:17:00,81.7,75.3,29.84,South,176,0.0,1.0,81,0.00,,---,0.00,VWS V14.01,2013-09-12 19:17:00,
2013-09-12 15:22:00,81.8,75.4,29.84,South,176,0.0,1.0,81,0.00,,---,0.00,VWS V14.01,2013-09-12 19:22:00,
2013-09-12 15:27:00,81.8,75.4,29.84,South,176,0.0,0.0,81,0.00,,---,0.00,VWS V14.01,2013-09-12 19:27:00,
2013-09-12 15:32:00,81.5,75.5,29.85,South,176,0.0,0.0,82,0.00,,---,0.00,VWS V14.01,2013-09-12 19:32:00,
2013-09-12 15:37:00,81.1,75.4,29.85,South,176,0.0,1.0,83,0.00,,---,0.00,VWS V14.01,2013-09-12 19:37:00,
2013-09-12 15:42:00,80.6,75.3,29.85,South,176,0.0,0.0,84,0.00,,---,0.00,VWS V14.01,2013-09-12 19:42:00,
2013-09-12 15:47:00,80.2,75.3,29.83,South,176,0.0,0.0,85,0.00,,---,0.00,VWS V14.01,2013-09-12 19:47:00,
2013-09-12 15:52:00,80.0,75.4,29.83,South,176,2.0,7.0,86,0.00,,---,0.00,VWS V14.01,2013-09-12 19:52:00,
2013-09-12 15:57:00,79.9,75.3,29.83,South,176,0.0,0.0,86,0.00,,---,0.00,VWS V14.01,2013-09-12 19:57:00,
2013-09-12 16:02:00,79.8,75.2,29.83,South,176,0.0,0.0,86,0.00,,---,0.00,VWS V14.01,2013-09-12 20:02:00,
2013-09-12 16:07:00,79.9,75.7,29.83,South,176,0.0,0.0,87,0.00,,---,0.00,VWS V14.01,2013-09-12 20:07:00,
2013-09-12 16:12:00,79.9,75.7,29.83,South,176,0.0,0.0,87,0.00,,---,0.00,VWS V14.01,2013-09-12 20:12:00,
2013-09-12 16:17:00,79.8,75.6,29.83,South,176,0.0,0.0,87,0.00,,---,0.00,VWS V14.01,2013-09-12 20:17:00,
2013-09-12 16:22:00,79.7,75.2,29.83,South,176,0.0,1.0,86,0.00,,---,0.00,VWS V14.01,2013-09-12 20:22:00,
2013-09-12 16:27:00,79.6,75.4,29.83,South,176,0.0,0.0,87,0.00,,---,0.00,VWS V14.01,2013-09-12 20:27:00,
2013-09-12 16:32:00,79.4,75.2,29.82,South,176,0.0,0.0,87,0.00,,---,0.00,VWS V14.01,2013-09-12 20:32:00,
2013-09-12 16:37:00,79.3,75.1,29.82,South,176,0.0,0.0,87,0.00,,---,0.00,VWS V14.01,2013-09-12 20:37:00,
2013-09-12 16:42:00,79.2,75.3,29.82,South,176,0.0,1.0,88,0.00,,---,0.00,VWS V14.01,2013-09-12 20:42:00,
2013-09-12 16:48:00,79.2,75.3,29.82,South,176,0.0,0.0,88,0.00,,---,0.00,VWS V14.01,2013-09-12 20:48:00,
2013-09-12 16:53:00,79.1,75.2,29.82,South,176,0.0,0.0,88,0.00,,---,0.00,VWS V14.01,2013-09-12 20:53:00,
2013-09-12 16:58:00,79.0,75.2,29.82,South,176,0.0,0.0,88,0.00,,---,0.00,VWS V14.01,2013-09-12 20:58:00,
2013-09-12 17:03:00,79.1,75.2,29.81,South,176,0.0,0.0,88,0.00,,---,0.00,VWS V14.01,2013-09-12 21:03:00,
2013-09-12 17:08:00,79.2,75.3,29.81,South,176,0.0,0.0,88,0.00,,---,0.00,VWS V14.01,2013-09-12 21:08:00,
2013-09-12 17:13:00,79.3,75.4,29.81,South,176,0.0,0.0,88,0.00,,---,0.00,VWS V14.01,2013-09-12 21:13:00,
2013-09-12 17:18:00,79.5,75.6,29.82,South,176,0.0,0.0,88,0.00,,---,0.00,VWS V14.01,2013-09-12 21:18:00,
2013-09-12 17:23:00,79.5,75.3,29.82,South,176,0.0,0.0,87,0.00,,---,0.00,VWS V14.01,2013-09-12 21:23:00,
2013-09-12 17:28:00,79.3,75.1,29.82,South,176,0.0,0.0,87,0.00,,---,0.00,VWS V14.01,2013-09-12 21:28:00,
2013-09-12 17:33:00,79.3,75.1,29.82,South,176,0.0,0.0,87,0.00,,---,0.00,VWS V14.01,2013-09-12 21:33:00,
2013-09-12 17:38:00,79.3,75.1,29.82,South,176,0.0,0.0,87,0.00,,---,0.00,VWS V14.01,2013-09-12 21:38:00,
2013-09-12 17:43:00,79.3,75.1,29.82,South,176,0.0,0.0,87,0.00,,---,0.00,VWS V14.01,2013-09-12 21:43:00,
2013-09-12 17:48:00,79.5,75.6,29.82,South,176,1.0,1.0,88,0.00,,---,0.00,VWS V14.01,2013-09-12 21:48:00,
2013-09-12 17:53:00,79.5,75.6,29.82,South,176,0.0,0.0,88,0.00,,---,0.00,VWS V14.01,2013-09-12 21:53:00,
2013-09-12 17:58:00,79.2,75.3,29.82,South,176,0.0,8.0,88,0.00,,---,0.00,VWS V14.01,2013-09-12 21:58:00,
2013-09-12 18:03:00,78.9,75.1,29.81,South,176,0.0,2.0,88,0.00,,---,0.00,VWS V14.01,2013-09-12 22:03:00,
2013-09-12 18:08:00,78.7,74.5,29.81,South,176,0.0,6.0,87,0.00,,---,0.00,VWS V14.01,2013-09-12 22:08:00,
2013-09-12 18:13:00,78.5,74.3,29.81,South,176,1.0,6.0,87,0.00,,---,0.00,VWS V14.01,2013-09-12 22:13:00,
2013-09-12 18:18:00,78.5,74.3,29.81,South,176,0.0,1.0,87,0.00,,---,0.00,VWS V14.01,2013-09-12 22:18:00,
2013-09-12 18:23:00,78.7,74.5,29.81,South,176,0.0,0.0,87,0.00,,---,0.00,VWS V14.01,2013-09-12 22:23:00,
2013-09-12 18:28:00,78.7,74.2,29.81,South,176,0.0,0.0,86,0.00,,---,0.00,VWS V14.01,2013-09-12 22:28:00,
2013-09-12 18:33:00,78.8,74.3,29.81,South,176,0.0,0.0,86,0.00,,---,0.00,VWS V14.01,2013-09-12 22:33:00,
2013-09-12 18:38:00,79.0,74.8,29.81,South,176,0.0,0.0,87,0.00,,---,0.00,VWS V14.01,2013-09-12 22:38:00,
2013-09-12 18:43:00,78.9,74.4,29.81,South,176,0.0,0.0,86,0.00,,---,0.00,VWS V14.01,2013-09-12 22:43:00,
2013-09-12 18:48:00,78.9,74.7,29.81,South,176,0.0,1.0,87,0.00,,---,0.00,VWS V14.01,2013-09-12 22:48:00,
2013-09-12 18:53:00,78.9,74.4,29.81,South,176,0.0,0.0,86,0.00,,---,0.00,VWS V14.01,2013-09-12 22:53:00,
2013-09-12 18:58:00,78.8,74.3,29.81,South,176,0.0,0.0,86,0.00,,---,0.00,VWS V14.01,2013-09-12 22:58:00,
2013-09-12 19:03:00,78.8,74.3,29.81,South,176,0.0,0.0,86,0.00,,---,0.00,VWS V14.01,2013-09-12 23:03:00,
2013-09-12 19:08:00,78.7,73.8,29.81,South,176,0.0,0.0,85,0.00,,---,0.00,VWS V14.01,2013-09-12 23:08:00,
2013-09-12 19:13:00,78.6,73.7,29.81,South,176,0.0,0.0,85,0.00,,---,0.00,VWS V14.01,2013-09-12 23:13:00,
2013-09-12 19:18:00,78.6,73.4,29.81,South,176,0.0,0.0,84,0.00,,---,0.00,VWS V14.01,2013-09-12 23:18:00,
2013-09-12 19:23:00,78.6,73.4,29.81,South,176,0.0,0.0,84,0.00,,---,0.00,VWS V14.01,2013-09-12 23:23:00,
2013-09-12 19:28:00,78.6,73.4,29.81,South,176,0.0,1.0,84,0.00,,---,0.00,VWS V14.01,2013-09-12 23:28:00,
2013-09-12 19:33:00,78.6,73.7,29.81,South,176,0.0,0.0,85,0.00,,---,0.00,VWS V14.01,2013-09-12 23:33:00,
2013-09-12 19:38:00,78.6,73.7,29.81,South,176,0.0,0.0,85,0.00,,---,0.00,VWS V14.01,2013-09-12 23:38:00,
2013-09-12 19:43:00,78.7,73.8,29.81,South,176,0.0,0.0,85,0.00,,---,0.00,VWS V14.01,2013-09-12 23:43:00,
2013-09-12 19:48:00,78.6,74.1,29.81,South,176,0.0,0.0,86,0.00,,---,0.00,VWS V14.01,2013-09-12 23:48:00,
2013-09-12 19:53:00,78.5,74.0,29.81,South,176,0.0,0.0,86,0.00,,---,0.00,VWS V14.01,2013-09-12 23:53:00,
2013-09-12 19:58:00,78.4,73.9,29.81,South,176,0.0,0.0,86,0.00,,---,0.00,VWS V14.01,2013-09-12 23:58:00,
2013-09-12 20:03:00,78.4,73.9,29.81,South,176,0.0,0.0,86,0.00,,---,0.00,VWS V14.01,2013-09-13 00:03:00,
2013-09-12 20:08:00,78.3,74.1,29.81,South,176,0.0,0.0,87,0.00,,---,0.00,VWS V14.01,2013-09-13 00:08:00,
2013-09-12 20:13:00,78.2,74.0,29.81,South,176,0.0,0.0,87,0.00,,---,0.00,VWS V14.01,2013-09-13 00:13:00,
2013-09-12 20:18:00,78.2,74.4,29.82,South,176,0.0,1.0,88,0.00,,---,0.00,VWS V14.01,2013-09-13 00:18:00,
2013-09-12 20:23:00,78.2,74.4,29.82,South,176,0.0,0.0,88,0.00,,---,0.00,VWS V14.01,2013-09-13 00:23:00,
2013-09-12 20:28:00,78.2,74.4,29.82,South,177,0.0,0.0,88,0.00,,---,0.00,VWS V14.01,2013-09-13 00:28:00,
2013-09-12 20:33:00,78.1,74.6,29.82,South,177,0.0,0.0,89,0.00,,---,0.00,VWS V14.01,2013-09-13 00:33:00,
2013-09-12 20:38:00,78.0,74.5,29.82,South,176,0.0,1.0,89,0.00,,---,0.00,VWS V14.01,2013-09-13 00:38:00,
2013-09-12 20:43:00,77.9,74.4,29.82,South,176,0.0,0.0,89,0.00,,---,0.00,VWS V14.01,2013-09-13 00:43:00,
2013-09-12 20:48:00,77.9,74.7,29.83,South,176,0.0,0.0,90,0.00,,---,0.00,VWS V14.01,2013-09-13 00:48:00,
2013-09-12 20:53:00,77.7,74.5,29.83,South,176,0.0,0.0,90,0.00,,---,0.00,VWS V14.01,2013-09-13 00:53:00,
2013-09-12 20:58:00,77.6,74.4,29.83,South,176,0.0,0.0,90,0.00,,---,0.00,VWS V14.01,2013-09-13 00:58:00,
2013-09-12 21:03:00,77.6,74.4,29.83,South,176,0.0,0.0,90,0.00,,---,0.00,VWS V14.01,2013-09-13 01:03:00,
2013-09-12 21:08:00,77.6,74.4,29.83,South,176,0.0,0.0,90,0.00,,---,0.00,VWS V14.01,2013-09-13 01:08:00,
2013-09-12 21:13:00,77.5,74.7,29.83,South,177,0.0,0.0,91,0.00,,---,0.00,VWS V14.01,2013-09-13 01:13:00,
2013-09-12 21:18:00,77.4,74.6,29.83,South,177,0.0,0.0,91,0.00,,---,0.00,VWS V14.01,2013-09-13 01:18:00,
2013-09-12 21:23:00,77.3,74.5,29.83,South,176,0.0,0.0,91,0.00,,---,0.00,VWS V14.01,2013-09-13 01:23:00,
2013-09-12 21:28:00,77.2,74.4,29.83,South,177,0.0,0.0,91,0.00,,---,0.00,VWS V14.01,2013-09-13 01:28:00,
2013-09-12 21:32:00,77.0,74.2,29.83,South,176,0.0,0.0,91,0.00,,---,0.00,VWS V14.01,2013-09-13 01:32:00,
2013-09-12 21:37:00,76.7,73.9,29.83,South,176,0.0,0.0,91,0.00,,---,0.00,VWS V14.01,2013-09-13 01:37:00,
2013-09-12 21:42:00,76.6,73.8,29.83,South,176,0.0,0.0,91,0.00,,---,0.00,VWS V14.01,2013-09-13 01:42:00,
2013-09-12 21:47:00,76.4,73.6,29.83,South,176,0.0,0.0,91,0.00,,---,0.00,VWS V14.01,2013-09-13 01:47:00,
2013-09-12 21:52:00,76.3,73.5,29.83,South,176,0.0,0.0,91,0.00,,---,0.00,VWS V14.01,2013-09-13 01:52:00,
2013-09-12 21:57:00,76.2,73.1,29.83,South,176,0.0,0.0,90,0.00,,---,0.00,VWS V14.01,2013-09-13 01:57:00,
2013-09-12 22:02:00,76.1,73.0,29.83,South,176,0.0,0.0,90,0.00,,---,0.00,VWS V14.01,2013-09-13 02:02:00,
2013-09-12 22:07:00,76.2,73.1,29.83,South,176,0.0,0.0,90,0.00,,---,0.00,VWS V14.01,2013-09-13 02:07:00,
2013-09-12 22:12:00,76.2,73.1,29.83,South,176,0.0,0.0,90,0.00,,---,0.00,VWS V14.01,2013-09-13 02:12:00,
2013-09-12 22:17:00,76.2,73.1,29.83,South,176,1.0,1.0,90,0.00,,---,0.00,VWS V14.01,2013-09-13 02:17:00,
2013-09-12 22:22:00,76.1,73.0,29.83,South,176,0.0,0.0,90,0.00,,---,0.00,VWS V14.01,2013-09-13 02:22:00,
2013-09-12 22:27:00,76.1,73.3,29.83,South,176,0.0,1.0,91,0.00,,---,0.00,VWS V14.01,2013-09-13 02:27:00,
2013-09-12 22:32:00,76.1,73.3,29.83,South,176,0.0,0.0,91,0.00,,---,0.00,VWS V14.01,2013-09-13 02:32:00,
2013-09-12 22:37:00,76.1,73.3,29.83,South,176,0.0,0.0,91,0.00,,---,0.00,VWS V14.01,2013-09-13 02:37:00,
2013-09-12 22:42:00,76.0,73.2,29.83,South,177,0.0,0.0,91,0.00,,---,0.00,VWS V14.01,2013-09-13 02:42:00,
2013-09-12 22:48:00,75.9,73.1,29.83,South,177,0.0,0.0,91,0.00,,---,0.00,VWS V14.01,2013-09-13 02:48:00,
2013-09-12 22:53:00,75.9,73.1,29.83,South,177,0.0,0.0,91,0.00,,---,0.00,VWS V14.01,2013-09-13 02:53:00,
2013-09-12 22:58:00,75.8,73.0,29.83,South,176,0.0,1.0,91,0.00,,---,0.00,VWS V14.01,2013-09-13 02:58:00,
2013-09-12 23:03:00,75.8,73.0,29.83,South,176,0.0,0.0,91,0.00,,---,0.00,VWS V14.01,2013-09-13 03:03:00,
2013-09-12 23:08:00,75.8,73.0,29.83,South,177,0.0,0.0,91,0.00,,---,0.00,VWS V14.01,2013-09-13 03:08:00,
2013-09-12 23:13:00,75.7,72.9,29.83,South,176,0.0,0.0,91,0.00,,---,0.00,VWS V14.01,2013-09-13 03:13:00,
2013-09-12 23:18:00,75.6,72.8,29.82,South,176,0.0,0.0,91,0.00,,---,0.00,VWS V14.01,2013-09-13 03:18:00,
2013-09-12 23:23:00,75.5,72.7,29.82,South,177,0.0,0.0,91,0.00,,---,0.00,VWS V14.01,2013-09-13 03:23:00,
2013-09-12 23:28:00,75.4,72.6,29.82,South,176,0.0,0.0,91,0.00,,---,0.00,VWS V14.01,2013-09-13 03:28:00,
2013-09-12 23:33:00,75.2,72.4,29.82,South,176,0.0,0.0,91,0.00,,---,0.00,VWS V14.01,2013-09-13 03:33:00,
2013-09-12 23:38:00,75.1,72.3,29.82,South,176,0.0,0.0,91,0.00,,---,0.00,VWS V14.01,2013-09-13 03:38:00,
2013-09-12 23:43:00,74.8,72.0,29.82,South,177,0.0,0.0,91,0.00,,---,0.00,VWS V14.01,2013-09-13 03:43:00,
2013-09-12 23:48:00,74.7,71.9,29.82,South,176,0.0,0.0,91,0.00,,---,0.00,VWS V14.01,2013-09-13 03:48:00,
2013-09-12 23:53:00,74.6,71.8,29.82,South,177,0.0,0.0,91,0.00,,---,0.00,VWS V14.01,2013-09-13 03:53:00,
2013-09-12 23:58:00,74.5,72.0,29.82,South,177,0.0,0.0,92,0.00,,---,0.00,VWS V14.01,2013-09-13 03:58:00,